Home   Weather   Victorville   Past weeks

Flag for USA Past Weather in Victorville, California, USA — Yesterday and Last 2 Weeks

Now
63 °F

Sunny.


Feels Like: 63 °F
Forecast: 53 / 76 °F
Wind: 13 mph from West

Location: George Air Force Base / Victorvi

Current Time: Apr 27, 2017 at 9:57:37 am

Latest Report: Apr 27, 2017 at 9:15 am


Visibility: 10 mi

Pressure: 29.89 "Hg (27.11 "Hg at 830m altitude)

Humidity: 42%

Dew Point: 39 °F

Location of VictorvilleLocation

Past Weather in Victorville — Graph

°F

Victorville Temperature Yesterday

Maximum temperature yesterday: 73 °F (at 12:15 pm)
Minimum temperature yesterday: 52 °F (at 2:35 am)
Average temperature yesterday: 62 °F

High & Low Weather Summary for the Past Weeks

 TemperatureHumidityPressure
High88 °F (Apr 22, 2:55 pm)94% (Apr 19, 1:35 am)30.19 "Hg (Apr 19, 1:35 am)
Low37 °F (Apr 15, 5:55 am)9% (Apr 16, 1:15 pm)29.81 "Hg (Apr 23, 4:35 pm)
Average61 °F41%29.99 "Hg
* Reported Apr 12 8:15 am — Apr 27 8:35 am, Victorville, Weather by CustomWeather, © 2017

Note: Actual official high and low records may vary slightly from our data, if they occured in-between our weather recording intervals... More about our weather records

Advertising

Victorville Weather History for the Previous 24 Hours

Scroll right to see more
 ConditionsComfort  
Time TempWeatherWind HumidityBarometerVisibility
8:35 am
Thu, Apr 27
61 °FSunny.20 mph52%29.86 "Hg10 mi
8:15 am59 °FScattered clouds.20 mph55%29.88 "Hg10 mi
7:55 am57 °FScattered clouds.12 mph59%29.89 "Hg10 mi
7:35 am57 °FScattered clouds.13 mph59%29.88 "Hg10 mi
7:15 am55 °FScattered clouds.14 mph63%29.86 "Hg10 mi
6:55 am55 °FScattered clouds.22 mph67%29.83 "Hg10 mi
6:35 am55 °FSunny.26 mph63%29.83 "Hg10 mi
6:15 am55 °FSunny.23 mph63%29.83 "Hg10 mi
5:35 am55 °FClear.18 mph63%29.82 "Hg10 mi
5:15 am55 °FClear.22 mph63%29.82 "Hg10 mi
4:55 am57 °FClear.18 mph59%29.83 "Hg10 mi
4:35 am57 °FClear.17 mph59%29.84 "Hg10 mi
4:15 am57 °FClear.15 mph59%29.85 "Hg10 mi
3:55 am57 °FClear.20 mph59%29.84 "Hg10 mi
3:35 am59 °FClear.21 mph55%29.83 "Hg10 mi
3:15 am57 °FClear.22 mph63%29.82 "Hg10 mi
2:55 am59 °FClear.30 mph55%29.81 "Hg10 mi
2:35 am61 °FClear.28 mph52%29.82 "Hg10 mi
1:55 am61 °FClear.24 mph52%29.82 "Hg10 mi
1:35 am61 °FClear.14 mph55%29.84 "Hg10 mi
1:15 am61 °FClear.22 mph55%29.84 "Hg10 mi
12:55 am61 °FClear.20 mph55%29.85 "Hg10 mi
12:35 am63 °FClear.17 mph52%29.86 "Hg10 mi
12:15 am63 °FClear.26 mph52%29.85 "Hg10 mi
11:55 pm
Wed, Apr 26
63 °FClear.26 mph52%29.85 "Hg10 mi
11:35 pm63 °FClear.25 mph56%29.84 "Hg10 mi
11:15 pm63 °FClear.31 mph52%29.84 "Hg10 mi
10:55 pm63 °FClear.28 mph56%29.85 "Hg10 mi
10:35 pm63 °FClear.21 mph56%29.86 "Hg10 mi
9:55 pm63 °FClear.24 mph56%29.85 "Hg10 mi
9:35 pm63 °FClear.30 mph56%29.83 "Hg10 mi
9:15 pm63 °FClear.30 mph56%29.83 "Hg10 mi
8:55 pm63 °FClear.24 mph56%29.86 "Hg10 mi
8:35 pm63 °FClear.17 mph56%29.86 "Hg10 mi
7:55 pm64 °FClear.25 mph52%29.83 "Hg10 mi
7:35 pm64 °FClear.30 mph52%29.83 "Hg10 mi
7:15 pm64 °FSunny.26 mph52%29.85 "Hg10 mi
6:35 pm66 °FScattered clouds.25 mph46%29.87 "Hg10 mi
6:15 pm66 °FScattered clouds.25 mph46%29.86 "Hg10 mi
5:55 pm68 °FScattered clouds.26 mph43%29.86 "Hg10 mi
5:15 pm70 °FScattered clouds.26 mph38%29.86 "Hg10 mi
4:55 pm70 °FScattered clouds.29 mph38%29.86 "Hg10 mi
4:35 pm72 °FScattered clouds.30 mph36%29.85 "Hg10 mi
3:55 pm72 °FScattered clouds.31 mph33%29.85 "Hg10 mi
3:35 pm73 °FScattered clouds.32 mph31%29.85 "Hg10 mi
3:15 pm73 °FScattered clouds.25 mph29%29.87 "Hg10 mi
2:55 pm72 °FScattered clouds.37 mph31%29.86 "Hg10 mi
2:35 pm72 °FScattered clouds.37 mph31%29.86 "Hg7 mi
2:15 pm72 °FScattered clouds.26 mph31%29.90 "Hg10 mi
1:55 pm73 °FScattered clouds.25 mph29%29.91 "Hg10 mi
1:35 pm73 °FScattered clouds.25 mph29%29.91 "Hg10 mi
12:55 pm73 °FScattered clouds.22 mph27%29.93 "Hg10 mi
12:35 pm73 °FScattered clouds.18 mph27%29.94 "Hg10 mi
12:15 pm73 °FScattered clouds.17 mph25%29.95 "Hg10 mi
11:55 am70 °FScattered clouds.18 mph29%29.95 "Hg10 mi
11:35 am68 °FScattered clouds.18 mph33%29.96 "Hg10 mi
10:55 am68 °FScattered clouds.20 mph30%29.95 "Hg10 mi
10:35 am66 °FScattered clouds.17 mph32%29.95 "Hg10 mi
10:15 am64 °FScattered clouds.18 mph34%29.95 "Hg10 mi
9:55 am63 °FScattered clouds.17 mph37%29.96 "Hg10 mi
9:35 am63 °FScattered clouds.18 mph39%29.95 "Hg10 mi
9:15 am61 °FScattered clouds.15 mph42%29.97 "Hg10 mi
Weather by CustomWeather, © 2017

See weather overviewHow to use our weather pages